User: anonymous
Location: Unspecified
(0.0000°N, 0.0000°E)
Time: 08:41:05
(UTC+00:00)
Language:

APRIZESAT 3 - Orbit

View from above orbital plane
View from above orbital plane
View from above satellite
View from above satellite

Ground track
Ground track

The orbit data is extracted from the following two-line orbital elements,

1 35686U 09041F   14209.46303502  .00000430  00000-0  54596-4 0  5795
2 35686 098.1504 156.8609 0075595 201.1318 275.7821 14.85271383270507
Epoch (UTC): 28 July 2014 11:06:46
Eccentricity: 0.0075595
inclination: 98.1504°
perigee height: 560 km
apogee height: 665 km
right ascension of ascending node: 156.8609°
argument of perigee: 201.1318°
revolutions per day: 14.85271383
mean anomaly at epoch: 275.7821°
orbit number at epoch: 27050

The dashed part of the orbit path shows where the satellite is in the earth's shadow,  

DLR